San Carlos, CA

11:01 AM PST on December 16, 2017 (GMT -0800)
San Carlos

Weather History for KSQL - October, 2013

Change the Weather History Date:

Sunday, October 6, 2013

  Actual Average Record
Temperature  
Mean Temperature 68 °F -  
Max Temperature 82 °F 78 °F 99 °F (1987)
Min Temperature 53 °F 50 °F 42 °F (1969)
Cooling Degree Days 2    
Growing Degree Days 18 (Base 50)    
Moisture  
Dew Point 37 °F    
Average Humidity 41    
Maximum Humidity 68    
Minimum Humidity 11    
Precipitation  
Precipitation 0.00 in - - ()
Sea Level Pressure  
Sea Level Pressure 30.07 in    
Wind  
Wind Speed 1 mph (NNW)    
Max Wind Speed 12 mph    
Max Gust Speed -    
Visibility 10 miles    
Events      
Averages and records for this station are not official NWS values.
T = Trace of Precipitation, MM = Missing Value Source: NWS Daily Summary

Daily Weather History Graph

Daily Weather History Graph

Search for Another Location

Airport or City:

Trip Planner

Search our weather history database for the weather conditions in past years. The results will help you decide how hot, cold, wet, or windy it might be!

Date:

Astronomy

Oct. 06, 2013 Rise Set
Actual Time 7:09 AM PDT 6:44 PM PDT
Civil Twilight 6:43 AM PDT 7:10 PM PDT
Nautical Twilight 6:12 AM PDT 7:40 PM PDT
Astronomical Twilight 5:42 AM PDT 8:10 PM PDT
Moon 8:56 AM PDT (10/6) 7:50 PM PDT (10/6)
Length of Visible Light 12h 27m
Length of Day
11h 34m
Waxing Crescent, 4% of the Moon is Illuminated
Oct 6
Waxing Crescent
Oct 11
First Quarter
Oct 18
Full
Oct 26
Last Quarter
Nov 3
New

Hourly Weather History & Observations

Time (PDT) Temp. Dew Point Humidity Pressure Visibility Wind Dir Wind Speed Gust Speed Precip Events Conditions
12:15 AM 62.6 °F 33.8 °F 34% 30.12 in 10.0 mi Calm Calm - N/A   Clear
12:35 AM 62.6 °F 33.8 °F 34% 30.12 in 10.0 mi Calm Calm - N/A   Clear
12:55 AM 60.8 °F 35.6 °F 39% 30.12 in 10.0 mi Calm Calm - N/A   Clear
1:15 AM 60.8 °F 33.8 °F 36% 30.12 in 10.0 mi Calm Calm - N/A   Clear
1:35 AM 59.0 °F 35.6 °F 42% 30.12 in 10.0 mi Calm Calm - N/A   Clear
1:55 AM 59.0 °F 35.6 °F 42% 30.12 in 10.0 mi Calm Calm - N/A   Clear
2:15 AM 59.0 °F 33.8 °F 39% 30.12 in 10.0 mi Calm Calm - N/A   Clear
2:35 AM 57.2 °F 37.4 °F 48% 30.11 in 10.0 mi Calm Calm - N/A   Clear
2:55 AM 57.2 °F 35.6 °F 44% 30.11 in 10.0 mi Calm Calm - N/A   Clear
3:15 AM 57.2 °F 35.6 °F 44% 30.11 in 10.0 mi Calm Calm - N/A   Clear
3:35 AM 57.2 °F 35.6 °F 44% 30.10 in 10.0 mi Calm Calm - N/A   Clear
3:55 AM 55.4 °F 35.6 °F 47% 30.10 in 10.0 mi Calm Calm - N/A   Clear
4:15 AM 55.4 °F 35.6 °F 47% 30.10 in 10.0 mi Calm Calm - N/A   Clear
4:35 AM 55.4 °F 35.6 °F 47% 30.10 in 10.0 mi Calm Calm - N/A   Clear
4:55 AM 55.4 °F 37.4 °F 51% 30.09 in 10.0 mi Calm Calm - N/A   Clear
5:15 AM 55.4 °F 35.6 °F 47% 30.09 in 10.0 mi Calm Calm - N/A   Clear
5:35 AM 55.4 °F 35.6 °F 47% 30.09 in 10.0 mi Calm Calm - N/A   Clear
5:55 AM 55.4 °F 35.6 °F 47% 30.10 in 10.0 mi Calm Calm - N/A   Clear
6:15 AM 53.6 °F 35.6 °F 51% 30.10 in 10.0 mi Calm Calm - N/A   Clear
6:35 AM 53.6 °F 37.4 °F 54% 30.10 in 10.0 mi Calm Calm - N/A   Clear
6:54 AM 53.6 °F 35.6 °F 51% 30.11 in 10.0 mi Calm Calm - N/A   Partly Cloudy
6:55 AM 53.6 °F 35.6 °F 51% 30.11 in 10.0 mi Calm Calm - N/A   Clear
7:48 AM 55.4 °F 37.4 °F 51% 30.11 in 10.0 mi Calm Calm - N/A   Scattered Clouds
8:55 AM 59.0 °F 48.2 °F 67% 30.12 in 10.0 mi Calm Calm - N/A   Scattered Clouds
9:47 AM 64.4 °F 51.8 °F 64% 30.13 in 10.0 mi NNE 4.6 mph - N/A   Mostly Cloudy
10:47 AM 68.0 °F 51.8 °F 56% 30.12 in 10.0 mi Calm Calm - N/A   Mostly Cloudy
11:47 AM 68.0 °F 50.0 °F 52% 30.10 in 10.0 mi NE 3.5 mph - N/A   Mostly Cloudy
12:55 PM 71.6 °F 55.4 °F 57% 30.09 in 10.0 mi NE 6.9 mph - N/A   Mostly Cloudy
1:47 PM 77.0 °F 44.6 °F 32% 30.06 in 10.0 mi NNW 5.8 mph - N/A   Mostly Cloudy
2:55 PM 80.6 °F 35.6 °F 20% 30.04 in 10.0 mi NW 6.9 mph - N/A   Mostly Cloudy
3:50 PM 82.4 °F 32.0 °F 16% 30.03 in 10.0 mi NNW 8.1 mph - N/A   Mostly Cloudy
4:50 PM 82.4 °F 23.0 °F 11% 30.01 in 10.0 mi WNW 11.5 mph - N/A   Mostly Cloudy
5:50 PM 80.6 °F 24.8 °F 13% 30.01 in 10.0 mi West 8.1 mph - N/A   Mostly Cloudy
6:50 PM 77.0 °F 24.8 °F 14% 30.01 in 10.0 mi NNW 5.8 mph - N/A   Mostly Cloudy
7:50 PM 73.4 °F 33.8 °F 23% 30.01 in 10.0 mi West 4.6 mph - N/A   Mostly Cloudy
8:47 PM 64.4 °F 53.6 °F 68% 30.02 in 10.0 mi Calm Calm - N/A   Mostly Cloudy
9:15 PM 66.2 °F 50.0 °F 56% 30.02 in 10.0 mi Calm Calm - N/A   Clear
9:35 PM 66.2 °F 44.6 °F 46% 30.02 in 10.0 mi Calm Calm - N/A   Clear
9:55 PM 66.2 °F 32.0 °F 28% 30.02 in 10.0 mi Calm Calm - N/A   Clear
10:15 PM 66.2 °F 32.0 °F 28% 30.02 in 10.0 mi Calm Calm - N/A   Clear
10:35 PM 64.4 °F 35.6 °F 34% 30.02 in 10.0 mi Calm Calm - N/A   Clear
10:55 PM 64.4 °F 37.4 °F 37% 30.01 in 10.0 mi Calm Calm - N/A   Clear
11:15 PM 62.6 °F 32.0 °F 32% 30.01 in 10.0 mi Calm Calm - N/A   Clear
11:35 PM 62.6 °F 32.0 °F 32% 30.01 in 10.0 mi Calm Calm - N/A   Clear
11:55 PM 62.6 °F 35.6 °F 37% 30.01 in 10.0 mi Calm Calm - N/A   Clear